Regional Weather Roundup
Issued by NWS Little Rock, AR

Home | Current Version | Previous Version | Text Only | Print | Product List | Glossary On
Versions: 1 2 3 4 5 6 7 8 9 10 11 12 13 14 15 16 17 18 19 20 21 22 23 24 25 26 27 28 29 30 31 32 33 34 35 36 37 38 39 40 41 42 43 44 45 46 47 48 49 50
000
ASUS44 KLZK 271305
RWRLZK

WEATHER ROUNDUP FOR ARKANSAS
NATIONAL WEATHER SERVICE LITTLE ROCK AR
800 AM CDT MON APR 27 2015

NOTE: "FAIR" INDICATES FEW OR NO CLOUDS BELOW 12,000 FEET WITH NO
SIGNIFICANT WEATHER AND/OR OBSTRUCTIONS TO VISIBILITY.

ARZ001-003-010-029-271400-
NORTHWEST ARKANSAS

CITY           SKY/WX    TMP DP  RH WIND       PRES   REMARKS
FAYETTEVILLE   CLOUDY    49  43  80 NE7       29.99R
FORT SMITH     LGT RAIN  53  47  79 E15G22    29.95R
HARRISON       CLOUDY    48  40  73 E7        30.05R
BENTONVILLE    CLOUDY    52  37  58 E14G23    30.02R
ROGERS         CLOUDY    50  38  63 E15G22    30.02R
SILOAM SPGS    CLOUDY    50  39  66 E10       30.00R
HIGHFILL       CLOUDY    51  41  68 E14       30.01R
SPRINGDALE     CLOUDY    50  41  71 E8G20     30.03R
$$

ARZ004-005-016-271400-
NORTH CENTRAL ARKANSAS

CITY           SKY/WX    TMP DP  RH WIND       PRES   REMARKS
BATESVILLE     CLOUDY    50  39  66 N5        30.05R
FLIPPIN        CLOUDY    48  41  76 CALM      30.04R
MTN HOME       CLOUDY    48  39  71 E6        30.04R
$$

ARZ040-041-271400-
WEST CENTRAL ARKANSAS

CITY           SKY/WX    TMP DP  RH WIND       PRES   REMARKS
MENA           CLOUDY    54  52  94 E13G18    29.93R
MOUNT IDA      CLOUDY    53  49  86 VRB3      29.91F
$$

ARZ009-017-025-026-028-271400-
NORTHEAST ARKANSAS

CITY           SKY/WX    TMP DP  RH WIND       PRES   REMARKS
CORNING          N/A     50  37  62 NE8       30.07R
JONESBORO      CLOUDY    49  42  77 NE6       30.05R
NEWPORT        CLOUDY    51  44  77 N12G17    30.05R
WALNUT RIDGE   CLOUDY    50  39  66 N7        30.06R
BLYTHEVILLE    CLOUDY    51  42  71 NE8       30.04R
$$

ARZ022-023-033-042-044-271400-
CENTRAL ARKANSAS

CITY           SKY/WX    TMP DP  RH WIND       PRES   REMARKS
LITTLE ROCK    LGT RAIN  54  44  69 N7        30.01R
N LITTLE ROCK    N/A     51  47  88 NE6       30.01R
JACKSONVILLE   CLOUDY    53  43  67 N7        30.02R
SEARCY         CLOUDY    52  43  71 N8        30.04R
HOT SPRINGS    LGT RAIN  52  48  86 E16G29    29.92F
RUSSELLVILLE   LGT RAIN  52  44  74 E10       29.99R
CLINTON        PTSUNNY   52  41  66 CALM      30.07R HAZE
$$

ARZ036-271400-
EAST ARKANSAS

CITY           SKY/WX    TMP DP  RH WIND       PRES   REMARKS
WEST MEMPHIS   CLOUDY    52  43  71 NE10      30.00R
$$

ARZ050-053-066-070-073-271400-
SOUTHWEST ARKANSAS

CITY           SKY/WX    TMP DP  RH WIND       PRES   REMARKS
ARKADELPHIA    LGT RAIN  55  55 100 NE7       29.95S FOG
CAMDEN         CLOUDY    55  50  82 N3        29.96R
TEXARKANA      LGT RAIN  53  52  96 E15G31    29.83F
EL DORADO      CLOUDY    58  48  69 NE13G21   29.93R
DE QUEEN       CLOUDY    55  51  86 E12       29.87R
$$

ARZ056-057-069-271400-
SOUTHEAST ARKANSAS

CITY           SKY/WX    TMP DP  RH WIND       PRES   REMARKS
PINE BLUFF     CLOUDY    55  51  86 N12       29.96F
STUTTGART      CLOUDY    55  45  67 NE12      29.98R
MONTICELLO     CLOUDY    57  49  74 NE12      29.94R

$$




USA.gov is the U.S. government's official web portal to all federal, state and local government web resources and services.